Regional Weather Roundup
Issued by NWS Kansas City/Pleasant Hill, MO

Home | Current Version | Previous Version | Graphics & Text | Print | Product List | Glossary Off
Versions: 1 2 3 4 5 6 7 8 9 10 11 12 13 14 15 16 17 18 19 20 21 22 23 24 25 26 27

000
ASUS43 KEAX 210210
RWREAX

WEATHER ROUNDUP FOR EASTERN KANSAS AND NORTHWEST MISSOURI
NATIONAL WEATHER SERVICE KANSAS CITY/PLEASANT HILL MO
900 PM CDT SUN MAY 20 2018

KSZ040-057-103>105-MOZ028-029-037-043-210300-
...KANSAS CITY METROPOLITAN AREA...

CITY           SKY/WX    TMP DP  RH WIND       PRES   REMARKS
K.C. INTL      CLOUDY    66  64  93 NW3       30.03R
K.C. DOWNTOWN  CLOUDY    69  63  81 NW6       30.01R
LEES SUMMIT    CLOUDY    69  66  90 NW5       30.02R
OLATHE - IXD   MOCLDY    65  63  93 N6        30.03S
OLATHE - OJC   CLOUDY    66  63  90 NW7       30.02R
LAWRENCE       CLEAR     64  63  96 N3        30.02S

$$

MOZ001>008-011>017-020>025-030>033-038>040-044>046-053-054-210300-
...NORTHERN AND CENTRAL MISSOURI...

CITY           SKY/WX    TMP DP  RH WIND       PRES   REMARKS
ST. JOSEPH     CLOUDY    68  66  93 CALM      30.04R
MOSBY          CLOUDY    68  63  83 NW5       30.02R
WARRENSBURG    CLOUDY    68  63  83 CALM      30.00R
WHITEMAN AFB   CLOUDY    66  65  97 SE5       29.97R
CLINTON        PTCLDY    66  66 100 CALM      30.01R
SEDALIA        CLOUDY    66  66 100 SE8       30.02R
WARSAW         NOT AVBL
CHILLICOTHE      N/A     72  64  76 N3        30.01S
KIRKSVILLE     CLOUDY    71  63  75 E8        30.04S

$$

MOZ041-047>049-056>058-063>065-088>090-097-210300-
...EASTERN AND SOUTHERN MISSOURI...

CITY           SKY/WX    TMP DP  RH WIND       PRES   REMARKS
ST. LOUIS INTL MOCLDY    75  67  76 NE5       30.04R
SPIRIT OF STL  CLOUDY    72  69  90 W3        30.03R
COLUMBIA       RAIN      65  63  93 W5        30.06R FOG
JEFFERSON CITY TSTM      72  69  90 E5        30.05R FOG
ROLLA          TSTM      65  63  93 W10       30.07R VSB 1
OSAGE BEACH    TSTM      65  65 100 NE6       30.04F
SPRINGFIELD    CLOUDY    68  65  90 SE5       30.02S
BRANSON        CLOUDY    66  66 100 SW5       30.05R FOG
JOPLIN         CLOUDY    69  67  93 N3        30.01S
WEST PLAINS    CLOUDY    75  68  78 SE13G21   30.07R

$$

IAZ060-094-KSZ022-034>040-054-083-096-NEZ052-066-093-210300-
...KANSAS...SOUTHEAST NEBRASKA AND IOWA...

CITY           SKY/WX    TMP DP  RH WIND       PRES   REMARKS
TOPEKA         CLEAR     65  63  93 CALM      30.02S
MANHATTAN      CLOUDY    61  60  97 CALM      30.05S FOG
EMPORIA        CLOUDY    62  58  86 NW5       30.04S
CHANUTE        CLOUDY    65  63  93 NW3       30.03S
WICHITA        PTCLDY    64  58  80 NE5       30.04S
OMAHA          CLOUDY    57  55  93 N10       30.04F FOG
LINCOLN        CLOUDY    55  53  93 N8        30.08S
FALLS CITY     CLOUDY    66  63  90 E3        30.02R
LAMONI         CLOUDY    66  63  90 NE3       30.04R
DES MOINES     CLOUDY    63  56  78 E14       30.05S

$$





USA.gov is the U.S. government's official web portal to all federal, state and local government web resources and services.